Montauk, NY
on Saturday, December 9, 2017

Saturday
       
Previous Day Next Day
Daily Summary
 ActualAverage (KHTO)Record (KHTO)
Temperature
Mean Temperature °F °C °F °C  
Max Temperature 37°F 3°C 46°F 7°C 64°F 17°C (1991)
Min Temperature 36°F 2°C 28°F -2°C 10°F -12°C (1934)
Degree Days
Heating Degree Days 28    
Moisture
Dew Point 34°F 1°C   
Average Humidity 89    
Maximum Humidity 93    
Minimum Humidity 82    
Precipitation
Precipitation 0.36 in / 9.14 cm in / cm in / cm ()
Wind
Wind Speed 12 mph / 19 km/h   
Max Wind Speed 20 mph / 32 km/h   
Max Gust Speed 26 mph / 42 km/h   
Averages and records for this station are not official NWS values.
Key: T is trace of precipitation, MM is missing value
Source: NWS Daily Summary
Seasonal Weather Averages
Time(EST)TemperatureDew PointHumidity Pressure Visibility Wind DirectionWind SpeedGust SpeedPrecipitationEvents Conditions
9:54 AM 37.0°F 2.8°C 32.0°F 0.0°C 82% 29.92 in / 1013.0 hPa - NNE 9.2 mph / 14.8 km/h - N/A   Unknown
10:54 AM 37.0°F 2.8°C 34.0°F 1.1°C 89% 29.91 in / 1012.9 hPa - NNE 11.5 mph / 18.5 km/h - 0.01 in / 0.3 cm   Unknown
11:54 AM 36.0°F 2.2°C 34.0°F 1.1°C 93% 29.88 in / 1011.8 hPa - North 10.4 mph / 16.7 km/h - 0.03 in / 0.8 cm   Unknown
12:54 PM 36.0°F 2.2°C 33.1°F 0.6°C 89% 29.83 in / 1010.2 hPa - NNE 11.5 mph / 18.5 km/h 19.6 mph / 31.5 km/h 0.03 in / 0.8 cm   Unknown
1:54 PM 36.0°F 2.2°C 34.0°F 1.1°C 93% 29.77 in / 1008.0 hPa - NNE 13.8 mph / 22.2 km/h 20.7 mph / 33.3 km/h 0.05 in / 1.3 cm   Unknown
2:54 PM 37.0°F 2.8°C 34.0°F 1.1°C 89% 29.75 in / 1007.2 hPa - NNE 12.7 mph / 20.4 km/h 21.9 mph / 35.2 km/h 0.06 in / 1.5 cm   Unknown
3:54 PM 37.0°F 2.8°C 34.0°F 1.1°C 89% 29.69 in / 1005.4 hPa - NNE 19.6 mph / 31.5 km/h 26.5 mph / 42.6 km/h 0.03 in / 0.8 cm   Unknown
4:54 PM 37.0°F 2.8°C 34.0°F 1.1°C 89% 29.69 in / 1005.4 hPa - NNE 16.1 mph / 25.9 km/h 25.3 mph / 40.7 km/h 0.02 in / 0.5 cm   Unknown
5:54 PM 37.0°F 2.8°C 34.0°F 1.1°C 89% 29.68 in / 1005.0 hPa - NNE 13.8 mph / 22.2 km/h 23.0 mph / 37.0 km/h 0.04 in / 1.0 cm   Unknown
6:54 PM 37.0°F 2.8°C 35.1°F 1.7°C 93% 29.65 in / 1004.1 hPa - NNE 15.0 mph / 24.1 km/h 24.2 mph / 38.9 km/h 0.03 in / 0.8 cm   Unknown
7:54 PM 37.0°F 2.8°C 34.0°F 1.1°C 89% 29.64 in / 1003.6 hPa - NNE 15.0 mph / 24.1 km/h 23.0 mph / 37.0 km/h 0.02 in / 0.5 cm   Unknown
8:54 PM 37.0°F 2.8°C 35.1°F 1.7°C 93% 29.65 in / 1003.9 hPa - North 12.7 mph / 20.4 km/h 19.6 mph / 31.5 km/h 0.02 in / 0.5 cm   Unknown
9:54 PM 37.0°F 2.8°C 34.0°F 1.1°C 89% 29.64 in / 1003.7 hPa - North 10.4 mph / 16.7 km/h - 0.02 in / 0.5 cm   Unknown
10:54 PM 37.0°F 2.8°C 34.0°F 1.1°C 89% 29.64 in / 1003.6 hPa - North 9.2 mph / 14.8 km/h - N/A   Unknown
11:54 PM 37.0°F 2.8°C 33.1°F 0.6°C 86% 29.65 in / 1003.8 hPa - North 12.7 mph / 20.4 km/h - N/A   Unknown